This demonstration page uses our WeatherBlox Daily Observations layout. Learn more.

Left ArrowRight Arrow

39.01783, -85.05884

Hourly Observations for May 7, 2018

Temp ( °F °C ) Dew Point ( °F °C ) Humidity (%) Winds ( mph kmh ) Pressure ( in mb ) Visibility ( mi km ) Precip ( " mm )
12:52 am 00:52 Partly Cloudy 59 15 55 12.8 87 87 SSW 5 7 30.00 1016 10 16 0.00 0.00
1:52 am 01:52 Clear 58 14.4 54 12.2 87 87 SW 6 9 29.99 1016 10 16 0.00 0.00
2:52 am 02:52 Clear 57 13.9 54 12.2 90 90 Calm 29.98 1015 10 16 0.00 0.00
3:52 am 03:52 Mostly Clear 54 12.2 52 11.1 93 93 WSW 5 7 30.00 1016 7 11 0.00 0.00
4:52 am 04:52 Clear 54 12.2 52 11.1 93 93 NW 6 9 30.01 1016 8 13 0.00 0.00
5:06 am 05:06 Partly Cloudy 55 12.8 53 11.7 93 93 NNW 6 9 30.03 1017 8 13 0.00 0.00
5:13 am 05:13 Cloudy with Mist and Fog 56 13.3 54 12.2 93 93 N 6 9 30.03 1017 6 10 0.00 0.00
5:52 am 05:52 Cloudy with Mist and Fog 57 13.9 55 12.8 93 93 N 8 13 30.03 1017 3 5 0.00 0.00
6:20 am 06:20 Cloudy with Mist and Fog 57 13.9 55 12.8 93 93 N 12 19 30.06 1018 3 4 0.00 0.00
6:34 am 06:34 Cloudy with Mist and Fog 56 13.3 55 12.8 97 97 N 9 15 30.06 1018 2 3 0.00 0.00
6:52 am 06:52 Cloudy with Mist and Fog 57 13.9 55 12.8 93 93 N 10 17 30.06 1018 2 3 0.00 0.00
7:08 am 07:08 Cloudy with Mist and Fog 56 13.3 54 12.2 93 93 N 10 17 30.09 1019 2 3 0.00 0.00
7:39 am 07:39 Cloudy with Mist and Fog 55 12.8 52 11.1 90 90 NNE 10 17 30.09 1019 2 3 0.00 0.00
7:52 am 07:52 Cloudy with Mist and Fog 55 12.8 52 11.1 90 90 N 9 15 30.09 1019 3 4 0.00 0.00
8:18 am 08:18 Mostly Sunny 56 13.3 50 10 81 81 N 7 11 30.12 1020 8 13 0.00 0.00
8:52 am 08:52 Sunny 57 13.9 49 9.4 74 74 NNE 13 20 30.11 1020 10 16 0.00 0.00
9:52 am 09:52 Mostly Sunny 60 15.6 50 10 70 70 N 13 20 30.12 1020 10 16 0.00 0.00
10:52 am 10:52 Partly Cloudy 63 17.2 51 10.6 65 65 NNE 13 20 30.13 1020 10 16 0.00 0.00
11:52 am 11:52 Partly Cloudy 67 19.4 48 8.9 51 51 NNE 16 26 30.13 1020 10 16 0.00 0.00
12:52 pm 12:52 Partly Cloudy 69 20.6 48 8.9 47 47 NNE 16 26 30.13 1020 10 16 0.00 0.00
1:52 pm 13:52 Partly Cloudy 71 21.7 50 10 47 47 NE 9 15 30.12 1020 10 16 0.00 0.00
2:52 pm 14:52 Partly Cloudy 71 21.7 48 8.9 44 44 N 10 17 30.11 1020 10 16 0.00 0.00
3:52 pm 15:52 Partly Cloudy 70 21.1 47 8.3 44 44 N 9 15 30.11 1020 10 16 0.00 0.00
4:52 pm 16:52 Partly Cloudy 72 22.2 47 8.3 41 41 NW 9 15 30.10 1019 10 16 0.00 0.00
5:52 pm 17:52 Partly Cloudy 72 22.2 45 7.2 38 38 NNW 13 20 30.09 1019 10 16 0.00 0.00
6:52 pm 18:52 Mostly Sunny 71 21.7 43 6.1 36 36 N 15 24 30.09 1019 10 16 0.00 0.00
7:52 pm 19:52 Mostly Sunny 68 20 42 5.6 39 39 N 9 15 30.09 1019 10 16 0.00 0.00
8:52 pm 20:52 Clear 64 17.8 42 5.6 45 45 N 8 13 30.11 1020 10 16 0.00 0.00
9:52 pm 21:52 Clear 62 16.7 41 5 46 46 N 8 13 30.12 1020 10 16 0.00 0.00
10:52 pm 22:52 Clear 61 16.1 39 3.9 44 44 NNE 8 13 30.14 1021 10 16 0.00 0.00
11:52 pm 23:52 Clear 62 16.7 37 2.8 40 40 NE 7 11 30.14 1021 10 16 0.00 0.00

Powered by AerisWeather